Regional Weather Roundup
Issued by NWS Charleston, SC

Current Version | Previous Version | Graphics & Text | Print | Product List | Glossary On
Versions: 1 2 3 4 5 6 7 8 9 10 11 12 13 14 15 16 17 18 19 20 21 22 23 24 25 26 27 28 29 30 31 32 33 34 35 36 37 38 39 40 41 42 43 44 45 46 47 48 49 50
301 ASUS42 KCHS 242027 RWRCHS REGIONAL WEATHER ROUNDUP NATIONAL WEATHER SERVICE CHARLESTON SC 400 PM EDT FRI MAR 24 2017 NOTE: "FAIR" INDICATES FEW OR NO CLOUDS BELOW 12,000 FEET WITH NO SIGNIFICANT WEATHER AND/OR OBSTRUCTIONS TO VISIBILITY. NOT ALL STATIONS ARE QUALITY CONTROLLED. USE DATA WITH CAUTION... ESPECIALLY DEWPOINT OBSERVATIONS. SCZ027-030-031-034>040-042>050-242100- ...SOUTHEAST SOUTH CAROLINA... CITY SKY/WX TMP DP RH WIND PRES REMARKS N CHARLESTON MOSUNNY 73 48 41 SE16 30.41F WATERFRONT PRK N/A 68 59 73 SE7 30.40F JOHNS ISLAND FAIR 72 52 49 E7G14 30.41F PINOPOLIS N/A 72 50 46 VRB3 30.33F MONCKS CORNER MOCLDY 70 46 43 E6 30.39F SUMMERVILLE CLOUDY 73 46 38 S9G18 30.40F BEAUFORT MCAS MOSUNNY 74 52 46 SE12 30.40F BEAUFORT ARPT MOCLDY 72 50 46 SE3 30.40F HILTON HEAD IS MOSUNNY 70 55 60 NE9 30.42F WALTERBORO PTCLDY 72 46 40 SE9G18 30.39F ALLENDALE MOCLDY 75 46 35 SE14G21 30.35F ...SOUTHERN MIDLANDS AND PEE DEE... CITY SKY/WX TMP DP RH WIND PRES REMARKS GEORGETOWN MOCLDY 68 52 56 E12 30.42F KINGSTREE CLOUDY 72 45 37 S6 30.39F ORANGEBURG MOSUNNY 74 46 36 S14 30.38F BARNWELL MOCLDY 77 48 36 S8G16 30.36F AIKEN FAIR 72 45 37 SE9G16 30.39F MANNING FAIR 72 46 40 SW12 30.39F COLUMBIA MOSUNNY 76 44 32 S9 30.36F SUMTER PTSUNNY 74 44 34 SE6 30.36F FLORENCE MOSUNNY 73 44 35 SE8 30.39F MYRTLE BEACH MOSUNNY 70 50 49 SE12 30.44F N MYRTLE BEACH SUNNY 68 50 52 S8 30.43F $$ GAZ063-065-086>088-099>101-113>116-118-119-134>141-150-242100- ...SOUTHEAST GEORGIA... CITY SKY/WX TMP DP RH WIND PRES REMARKS SAVANNAH ARPT PTSUNNY 75 48 38 S15 30.39F HUNTER AAF PTSUNNY 72 52 49 SE14G21 30.36F FORT STEWART PTSUNNY 74 52 46 E17 30.35F STATESBORO MOSUNNY 76 51 40 SE10 30.35F SYLVANIA PTCLDY N/A N/A N/A S10 30.36F CLAXTON FAIR 74 52 47 E8G17 30.35F ...CSRA...CENTRAL AND FAR SOUTHEAST GEORGIA... CITY SKY/WX TMP DP RH WIND PRES REMARKS THOMSON MOSUNNY 74 45 35 SW7 30.40F AUGUSTA-BUSH SUNNY 79 44 28 SE13G21 30.34F AUGUSTA-DANIEL SUNNY 75 41 29 SE9G18 30.36F SWAINSBORO FAIR 77 45 31 S13 30.34F VIDALIA MOSUNNY 77 48 36 SE10G17 30.33F EASTMAN FAIR 79 23 12 E10G18 30.34F HAZLEHURST FAIR 77 50 37 SE8G17 30.31F ALMA MOSUNNY 76 48 37 SE14G21 30.33F WAYCROSS SUNNY 79 53 40 SE12G17 30.32F JESUP MOCLDY 73 50 43 SE12G17 30.35F BAXLEY PTSUNNY 77 54 44 E9G22 30.32F BRUNSWICK MOSUNNY 73 59 60 SE15G21 30.37F SAINT SIMONS SUNNY 71 57 61 E12 30.38F $$ SCZ027-028-034-036>038-045-046-048>050-GAZ119-141-242100- ...LAKE AND SUPPLEMENTAL COASTAL OBSERVATIONS... STATION/POSITION TIME TEMP WIND PRES WAVE SWELL AIR SEA DIR/SP/G HT/PER HT/PER/DIR (UTC) (F) (DEG/KT/KT) (MB) (FT/S) (FT/S/D) WINYAH BAY 1945 66 100/ 7 1030.0F LAKE MURRAY 1950 78 CALM / 1 1027.4F ACE BASIN NERRS 1930 72 130/ 4 1030.0S FORT PULASKI 2000 64 61 80/ 8/ 10 1029.7 SAPELO ISLAND 2000 72 100/ 7 1029.0 $$ ANZ835-935-AMZ111-154-330-350-352-354-370-450-454-472-242100- ...C-MAN AND BUOY OBSERVATIONS... STATION/POSITION TIME TEMP WIND PRES WAVE SWELL AIR SEA DIR/SP/G HT/PER HT/PER/DIR (UTC) (F) (DEG/KT/KT) (MB) (FT/S) (FT/S/D) BUOY 41004 1950 69 72 140/ 12/ 16 1029.7F 4/ 7 3/110/ 7 BUOY 41008 1950 66 63 100/ 6/ 8 1028.9F 5/ 6 5/100/ 6 FOLLY BEACH CMAN 2000 63 70/ 8/ 9 1030.7F CAPERS NEARSHORE 2008 60 70/ 8/ 10 1029.8F FRIPP NEARSHORE 2008 62 61 60/ 6/ 8 1029.4F STATION/POSITION TIME TEMP WIND PRES WAVE SWELL AIR SEA DIR/SP/G HT/PER HT/PER/DIR (UTC) (F) (DEG/KT/KT) (MB) (FT/S) (FT/S/D) 5E ST. MARYS GA 2000 65 N/A 5/ 7 2/ 80/11 FRYING PAN BUOY 2010 68 72 170/ 12/ 16 1030.2 BUOY 41025 1950 65 75 210/ 16/ 21 1030.7F 4/10 3/ 80/10 CAPE LOOKOUT NC 2000 66 200/ 13/ 16 1030.4F BUOY 41002 1950 64 74 70/ 16/ 19 1031.4F 5/10 3/ 40/10 BUOY 41010 NOT AVBL ST AUGUSTINE FL 2000 67 67 90/ 8/ 9 1028.5F $$

USA.gov is the U.S. government's official web portal to all federal, state and local government web resources and services.